When you browse on this site, cookies collect data to enhance your experience and personalize the content and advertising you see.
Visit our Privacy Policy to learn more. By continuing to use the site, you agree to this use of cookies and data.
  • In Hungary
  • List of Countries
  • For 7 days
  • Water Temperature
  • Satellite Maps
  • Weather Map
  • News
  • Weather Widgets
  • user-avatar
    Login

    Hourly Weather Kumertau

    Today, 17 January, Thursday

    Time Temperature Precipitation Wind Pressure Humidity
    00:00 -12°C° 0 mm 9 mps 733 mmHg 73%
    01:00 -12°C° 0 mm 9 mps 732 mmHg 73%
    02:00 -13°C° 0 mm 8 mps 732 mmHg 75%
    03:00 -13°C° 0 mm 8 mps 732 mmHg 77%
    04:00 -15°C° 0 mm 9 mps 732 mmHg 77%
    05:00 -15°C° 0.1 mm 9 mps 732 mmHg 81%
    06:00 -15°C° 0.1 mm 8 mps 732 mmHg 84%
    07:00 -15°C° 0.1 mm 8 mps 731 mmHg 87%
    08:00 -15°C° 0.4 mm 8 mps 731 mmHg 89%
    09:00 -13°C° 0.4 mm 8 mps 731 mmHg 91%
    10:00 -13°C° 0 mm 8 mps 731 mmHg 93%
    11:00 -12°C° 0.5 mm 7 mps 731 mmHg 93%
    12:00 -11°C° 0.5 mm 6 mps 730 mmHg 93%
    13:00 -10°C° 0.5 mm 5 mps 730 mmHg 93%
    14:00 -9°C° 0.2 mm 4 mps 731 mmHg 94%
    15:00 -8°C° 0.2 mm 3 mps 731 mmHg 95%
    16:00 -6°C° 0 mm 1 mps 731 mmHg 96%
    17:00 -7°C° 0 mm 1 mps 731 mmHg 96%
    18:00 -8°C° 0 mm 1 mps 732 mmHg 97%
    19:00 -9°C° 0 mm 1 mps 732 mmHg 97%
    20:00 -8°C° 0 mm 1 mps 732 mmHg 96%
    21:00 -8°C° 0 mm 1 mps 733 mmHg 96%
    22:00 -9°C° 0 mm 2 mps 734 mmHg 95%
    23:00 -8°C° 0 mm 1 mps 734 mmHg 95%

    Tomorrow, 18 January, Friday

    Time Temperature Precipitation Wind Pressure Humidity
    00:00 -8°C° 0 mm 1 mps 734 mmHg 95%
    01:00 -8°C° 0 mm 1 mps 735 mmHg 95%
    02:00 -8°C° 0 mm 1 mps 735 mmHg 95%
    03:00 -9°C° 0 mm 1 mps 735 mmHg 95%
    04:00 -9°C° 0 mm 1 mps 736 mmHg 95%
    05:00 -9°C° 0 mm 1 mps 736 mmHg 95%
    06:00 -10°C° 0 mm 1 mps 736 mmHg 95%
    07:00 -11°C° 0 mm 1 mps 736 mmHg 96%
    08:00 -12°C° 0 mm 1 mps 736 mmHg 96%
    09:00 -12°C° 0 mm 1 mps 736 mmHg 96%
    10:00 -13°C° 0 mm 1 mps 736 mmHg 97%
    11:00 -14°C° 0 mm 2 mps 736 mmHg 95%
    12:00 -13°C° 0 mm 2 mps 736 mmHg 94%
    13:00 -14°C° 0 mm 3 mps 735 mmHg 92%
    14:00 -14°C° 0 mm 3 mps 735 mmHg 92%
    15:00 -15°C° 0 mm 3 mps 735 mmHg 91%
    16:00 -15°C° 0 mm 3 mps 735 mmHg 90%
    17:00 -16°C° 0 mm 3 mps 735 mmHg 90%
    18:00 -16°C° 0 mm 3 mps 735 mmHg 90%
    19:00 -17°C° 0 mm 3 mps 736 mmHg 89%
    20:00 -17°C° 0 mm 3 mps 736 mmHg 91%
    21:00 -16°C° 0 mm 2 mps 736 mmHg 92%
    22:00 -16°C° 0 mm 2 mps 736 mmHg 93%
    23:00 -16°C° 0 mm 2 mps 736 mmHg 94%

    Day after tomorrow, 19 January, Saturday

    Time Temperature Precipitation Wind Pressure Humidity
    00:00 -16°C° 0 mm 2 mps 736 mmHg 95%
    01:00 -15°C° 0 mm 2 mps 736 mmHg 96%
    02:00 -15°C° 0 mm 2 mps 736 mmHg 96%
    03:00 -14°C° 0 mm 2 mps 736 mmHg 96%
    04:00 -12°C° 0 mm 1 mps 736 mmHg 96%
    05:00 -14°C° 0 mm 2 mps 736 mmHg 96%
    06:00 -13°C° 0 mm 2 mps 736 mmHg 96%
    07:00 -13°C° 0 mm 2 mps 736 mmHg 96%
    08:00 -14°C° 0 mm 3 mps 735 mmHg 96%
    09:00 -13°C° 0 mm 3 mps 735 mmHg 96%
    10:00 -13°C° 0 mm 3 mps 735 mmHg 96%
    11:00 -12°C° 0 mm 3 mps 735 mmHg 96%
    12:00 -12°C° 0 mm 3 mps 735 mmHg 95%
    13:00 -10°C° 0 mm 3 mps 735 mmHg 95%
    14:00 -10°C° 0 mm 3 mps 735 mmHg 96%
    15:00 -10°C° 0 mm 3 mps 735 mmHg 96%
    16:00 -10°C° 0 mm 3 mps 735 mmHg 96%
    17:00 -10°C° 0 mm 3 mps 734 mmHg 96%
    18:00 -10°C° 0 mm 3 mps 734 mmHg 97%
    19:00 -10°C° 0 mm 3 mps 734 mmHg 97%
    20:00 -10°C° 0 mm 3 mps 734 mmHg 97%
    21:00 -10°C° 0 mm 3 mps 734 mmHg 97%
    22:00 -10°C° 0 mm 3 mps 734 mmHg 97%
    23:00 -9°C° 0 mm 3 mps 733 mmHg 96%

    20 January, Sunday

    Time Temperature Precipitation Wind Pressure Humidity
    00:00 -9°C° 0 mm 3 mps 733 mmHg 96%
    01:00 -9°C° 0 mm 3 mps 733 mmHg 96%
    02:00 -9°C° 0.1 mm 3 mps 733 mmHg 96%
    03:00 -9°C° 0.1 mm 4 mps 732 mmHg 96%
    04:00 -9°C° 0.1 mm 4 mps 732 mmHg 96%
    05:00 -9°C° 0.1 mm 4 mps 731 mmHg 96%
    06:00 -9°C° 0.1 mm 4 mps 731 mmHg 96%
    07:00 -9°C° 0.1 mm 4 mps 731 mmHg 96%
    08:00 -8°C° 0.2 mm 5 mps 730 mmHg 96%
    09:00 -8°C° 0.2 mm 5 mps 730 mmHg 96%
    10:00 -7°C° 0.2 mm 5 mps 730 mmHg 96%
    11:00 -6°C° 0.3 mm 5 mps 730 mmHg 95%
    12:00 -5°C° 0.3 mm 6 mps 731 mmHg 94%
    13:00 -4°C° 0.3 mm 6 mps 731 mmHg 92%
    14:00 -6°C° 0.1 mm 6 mps 731 mmHg 91%
    15:00 -8°C° 0.1 mm 7 mps 732 mmHg 90%
    16:00 -11°C° 0.1 mm 7 mps 733 mmHg 89%
    17:00 -12°C° 0 mm 6 mps 733 mmHg 90%
    18:00 -15°C° 0 mm 5 mps 734 mmHg 91%
    19:00 -18°C° 0 mm 4 mps 735 mmHg 93%
    20:00 -18°C° 0 mm 3 mps 736 mmHg 94%
    21:00 -19°C° 0 mm 3 mps 736 mmHg 96%
    22:00 -19°C° 0 mm 2 mps 737 mmHg 97%
    23:00 -19°C° 0 mm 2 mps 738 mmHg 97%

    21 January, Monday

    Time Temperature Precipitation Wind Pressure Humidity
    00:00 -19°C° 0 mm 2 mps 738 mmHg 97%
    01:00 -17°C° 0 mm 1 mps 739 mmHg 97%
    02:00 -18°C° 0 mm 2 mps 739 mmHg 97%
    03:00 -18°C° 0 mm 2 mps 739 mmHg 97%
    04:00 -18°C° 0 mm 2 mps 740 mmHg 97%
    05:00 -17°C° 0 mm 2 mps 740 mmHg 97%
    06:00 -18°C° 0 mm 3 mps 740 mmHg 97%
    07:00 -19°C° 0 mm 4 mps 741 mmHg 97%
    08:00 -19°C° 0 mm 4 mps 741 mmHg 96%
    09:00 -20°C° 0 mm 5 mps 741 mmHg 96%
    10:00 -20°C° 0 mm 5 mps 741 mmHg 95%
    11:00 -19°C° 0 mm 5 mps 741 mmHg 95%
    12:00 -19°C° 0 mm 5 mps 741 mmHg 95%
    13:00 -20°C° 0 mm 6 mps 741 mmHg 94%
    14:00 -19°C° 0 mm 5 mps 741 mmHg 94%
    15:00 -19°C° 0 mm 5 mps 741 mmHg 95%
    16:00 -19°C° 0 mm 5 mps 741 mmHg 95%
    17:00 -20°C° 0 mm 5 mps 741 mmHg 95%
    18:00 -20°C° 0 mm 5 mps 741 mmHg 96%
    19:00 -21°C° 0 mm 5 mps 741 mmHg 96%
    20:00 -21°C° 0 mm 5 mps 741 mmHg 96%
    21:00 -21°C° 0 mm 5 mps 740 mmHg 96%
    22:00 -22°C° 0 mm 5 mps 740 mmHg 96%
    23:00 -22°C° 0 mm 5 mps 740 mmHg 96%

    22 January, Tuesday

    Time Temperature Precipitation Wind Pressure Humidity
    00:00 -22°C° 0 mm 5 mps 739 mmHg 95%
    01:00 -22°C° 0 mm 5 mps 739 mmHg 95%
    02:00 -22°C° 0 mm 5 mps 738 mmHg 93%
    03:00 -22°C° 0 mm 6 mps 738 mmHg 91%
    04:00 -22°C° 0 mm 6 mps 737 mmHg 89%
    05:00 -21°C° 0 mm 7 mps 736 mmHg 86%
    06:00 -20°C° 0 mm 7 mps 735 mmHg 84%
    07:00 -19°C° 0 mm 8 mps 734 mmHg 82%
    08:00 -20°C° 0.2 mm 9 mps 734 mmHg 84%
    09:00 -19°C° 0.2 mm 9 mps 733 mmHg 87%
    10:00 -18°C° 0.2 mm 10 mps 732 mmHg 89%
    11:00 -17°C° 0.4 mm 10 mps 731 mmHg 90%
    12:00 -14°C° 0.4 mm 11 mps 731 mmHg 91%
    13:00 -13°C° 0.4 mm 11 mps 730 mmHg 92%
    14:00 -11°C° 0.5 mm 11 mps 729 mmHg 92%
    15:00 -9°C° 0.5 mm 11 mps 728 mmHg 92%
    16:00 -8°C° 0.5 mm 11 mps 728 mmHg 91%
    17:00 -8°C° 0.9 mm 11 mps 728 mmHg 92%
    18:00 -8°C° 0.9 mm 10 mps 728 mmHg 92%
    19:00 -8°C° 0.9 mm 9 mps 728 mmHg 93%
    20:00 -11°C° 0.2 mm 8 mps 729 mmHg 93%
    21:00 -14°C° 0.2 mm 6 mps 729 mmHg 93%
    22:00 -16°C° 0.2 mm 4 mps 730 mmHg 93%
    23:00 -17°C° 0 mm 4 mps 731 mmHg 94%
    Show more